• In Lithuania
  • List of Countries
  • For 7 days
  • Water Temperature
  • Satellite Maps
  • Weather Map
  • Weather Widgets
  • user-avatar
    Login

    Hourly Weather La Paz

    Today, 18 November, Saturday

    Time Temperature Precipitation Wind Pressure Humidity
    00:00 +8°C° 0 mm 1 mps 473 mmHg 78%
    01:00 +8°C° 0 mm 1 mps 472 mmHg 77%
    02:00 +7°C° 0 mm 1 mps 472 mmHg 77%
    03:00 +7°C° 0 mm 1 mps 472 mmHg 76%
    04:00 +7°C° 0 mm 1 mps 472 mmHg 75%
    05:00 +8°C° 0 mm 1 mps 472 mmHg 66%
    06:00 +9°C° 0 mm 1 mps 473 mmHg 58%
    07:00 +10°C° 0 mm 1 mps 474 mmHg 50%
    08:00 +12°C° 0 mm 1 mps 475 mmHg 44%
    09:00 +13°C° 0 mm 2 mps 476 mmHg 39%
    10:00 +15°C° 0 mm 2 mps 477 mmHg 34%
    11:00 +15°C° 0.5 mm 2 mps 476 mmHg 36%
    12:00 +15°C° 0.5 mm 2 mps 476 mmHg 38%
    13:00 +16°C° 0.5 mm 3 mps 476 mmHg 41%
    14:00 +14°C° 0.5 mm 3 mps 475 mmHg 45%
    15:00 +13°C° 0.5 mm 3 mps 474 mmHg 50%
    16:00 +13°C° 0.5 mm 3 mps 474 mmHg 54%
    17:00 +12°C° 0.3 mm 3 mps 474 mmHg 62%
    18:00 +10°C° 0.3 mm 3 mps 473 mmHg 70%
    19:00 +9°C° 0.3 mm 3 mps 473 mmHg 77%
    20:00 +9°C° 0.2 mm 3 mps 474 mmHg 79%
    21:00 +8°C° 0.2 mm 3 mps 474 mmHg 80%
    22:00 +8°C° 0.2 mm 2 mps 474 mmHg 81%
    23:00 +8°C° 0.1 mm 2 mps 474 mmHg 82%

    Tomorrow, 19 November, Sunday

    Time Temperature Precipitation Wind Pressure Humidity
    00:00 +7°C° 0.1 mm 2 mps 473 mmHg 83%
    01:00 +7°C° 0.1 mm 2 mps 473 mmHg 84%
    02:00 +7°C° 0 mm 1 mps 473 mmHg 85%
    03:00 +7°C° 0 mm 1 mps 472 mmHg 85%
    04:00 +7°C° 0 mm 1 mps 472 mmHg 86%
    05:00 +7°C° 0 mm 1 mps 473 mmHg 83%
    06:00 +8°C° 0 mm 1 mps 473 mmHg 79%
    07:00 +8°C° 0 mm 1 mps 474 mmHg 76%
    08:00 +8°C° 0.2 mm 2 mps 475 mmHg 72%
    09:00 +9°C° 0.2 mm 2 mps 475 mmHg 68%
    10:00 +10°C° 0.2 mm 2 mps 476 mmHg 64%
    11:00 +11°C° 0.2 mm 3 mps 475 mmHg 62%
    12:00 +11°C° 0.2 mm 3 mps 475 mmHg 61%
    13:00 +12°C° 0.2 mm 3 mps 475 mmHg 60%
    14:00 +11°C° 0.2 mm 3 mps 474 mmHg 63%
    15:00 +11°C° 0.2 mm 3 mps 473 mmHg 66%
    16:00 +10°C° 0.2 mm 4 mps 472 mmHg 69%
    17:00 +9°C° 0.2 mm 3 mps 473 mmHg 74%
    18:00 +8°C° 0.2 mm 3 mps 473 mmHg 79%
    19:00 +7°C° 0.2 mm 3 mps 473 mmHg 84%
    20:00 +7°C° 0.1 mm 2 mps 473 mmHg 83%
    21:00 +7°C° 0.1 mm 2 mps 473 mmHg 82%
    22:00 +8°C° 0.1 mm 1 mps 474 mmHg 81%
    23:00 +8°C° 0 mm 1 mps 473 mmHg 80%

    Day after tomorrow, 20 November, Monday

    Time Temperature Precipitation Wind Pressure Humidity
    00:00 +7°C° 0 mm 1 mps 473 mmHg 79%
    01:00 +7°C° 0 mm 1 mps 472 mmHg 78%
    02:00 +7°C° 0 mm 1 mps 472 mmHg 79%
    03:00 +6°C° 0 mm 1 mps 472 mmHg 79%
    04:00 +6°C° 0 mm 1 mps 472 mmHg 79%
    05:00 +7°C° 0 mm 1 mps 472 mmHg 74%
    06:00 +8°C° 0 mm 1 mps 473 mmHg 68%
    07:00 +9°C° 0 mm 1 mps 474 mmHg 63%
    08:00 +10°C° 0 mm 1 mps 475 mmHg 57%
    09:00 +12°C° 0 mm 1 mps 476 mmHg 51%
    10:00 +13°C° 0 mm 2 mps 477 mmHg 45%
    11:00 +14°C° 0.3 mm 2 mps 477 mmHg 45%
    12:00 +14°C° 0.3 mm 2 mps 476 mmHg 45%
    13:00 +15°C° 0.3 mm 2 mps 476 mmHg 45%
    14:00 +15°C° 0.2 mm 2 mps 475 mmHg 47%
    15:00 +14°C° 0.2 mm 2 mps 475 mmHg 50%
    16:00 +13°C° 0.2 mm 3 mps 474 mmHg 53%
    17:00 +12°C° 0.2 mm 3 mps 474 mmHg 61%
    18:00 +10°C° 0.2 mm 3 mps 474 mmHg 69%
    19:00 +9°C° 0.2 mm 3 mps 473 mmHg 77%
    20:00 +9°C° 0 mm 2 mps 474 mmHg 78%
    21:00 +8°C° 0 mm 2 mps 474 mmHg 78%
    22:00 +9°C° 0 mm 1 mps 474 mmHg 79%
    23:00 +8°C° 0 mm 1 mps 474 mmHg 79%

    21 November, Tuesday

    Time Temperature Precipitation Wind Pressure Humidity
    00:00 +8°C° 0 mm 1 mps 473 mmHg 78%
    01:00 +8°C° 0 mm 1 mps 473 mmHg 78%
    02:00 +7°C° 0 mm 1 mps 473 mmHg 75%
    03:00 +7°C° 0 mm 1 mps 472 mmHg 72%
    04:00 +5°C° 0 mm 2 mps 472 mmHg 69%
    05:00 +7°C° 0 mm 2 mps 473 mmHg 59%
    06:00 +9°C° 0 mm 1 mps 475 mmHg 49%
    07:00 +11°C° 0 mm 1 mps 476 mmHg 38%
    08:00 +12°C° 0 mm 2 mps 477 mmHg 35%
    09:00 +14°C° 0 mm 2 mps 478 mmHg 31%
    10:00 +14°C° 0 mm 3 mps 478 mmHg 28%
    11:00 +16°C° 0.1 mm 3 mps 478 mmHg 30%
    12:00 +17°C° 0.1 mm 3 mps 478 mmHg 31%
    13:00 +17°C° 0.1 mm 3 mps 478 mmHg 33%
    14:00 +16°C° 0.3 mm 3 mps 477 mmHg 38%
    15:00 +16°C° 0.3 mm 3 mps 476 mmHg 43%
    16:00 +14°C° 0.3 mm 3 mps 475 mmHg 48%
    17:00 +13°C° 0.2 mm 3 mps 475 mmHg 58%
    18:00 +11°C° 0.2 mm 3 mps 475 mmHg 67%
    19:00 +10°C° 0.2 mm 3 mps 474 mmHg 77%
    20:00 +9°C° 0.1 mm 3 mps 475 mmHg 79%
    21:00 +9°C° 0.1 mm 3 mps 475 mmHg 81%
    22:00 +8°C° 0.1 mm 2 mps 475 mmHg 83%
    23:00 +8°C° 0 mm 2 mps 474 mmHg 83%

    22 November, Wednesday

    Time Temperature Precipitation Wind Pressure Humidity
    00:00 +8°C° 0 mm 1 mps 474 mmHg 84%
    01:00 +8°C° 0 mm 1 mps 473 mmHg 85%
    02:00 +8°C° 0 mm 1 mps 473 mmHg 85%
    03:00 +8°C° 0 mm 1 mps 473 mmHg 85%
    04:00 +7°C° 0 mm 1 mps 473 mmHg 86%
    05:00 +8°C° 0 mm 1 mps 474 mmHg 81%
    06:00 +9°C° 0 mm 1 mps 475 mmHg 76%
    07:00 +8°C° 0 mm 2 mps 475 mmHg 72%
    08:00 +9°C° 0.1 mm 2 mps 476 mmHg 67%
    09:00 +10°C° 0.1 mm 2 mps 476 mmHg 63%
    10:00 +11°C° 0.1 mm 3 mps 476 mmHg 59%
    11:00 +12°C° 0.1 mm 3 mps 476 mmHg 57%
    12:00 +13°C° 0.1 mm 4 mps 476 mmHg 55%
    13:00 +13°C° 0.1 mm 4 mps 476 mmHg 54%
    14:00 +12°C° 0.2 mm 4 mps 475 mmHg 58%
    15:00 +12°C° 0.2 mm 4 mps 474 mmHg 62%
    16:00 +11°C° 0.2 mm 4 mps 474 mmHg 66%
    17:00 +10°C° 0.1 mm 4 mps 474 mmHg 71%
    18:00 +8°C° 0.1 mm 4 mps 474 mmHg 76%
    19:00 +7°C° 0.1 mm 4 mps 474 mmHg 81%
    20:00 +8°C° 0 mm 3 mps 474 mmHg 82%
    21:00 +7°C° 0 mm 3 mps 474 mmHg 84%
    22:00 +7°C° 0 mm 3 mps 474 mmHg 85%
    23:00 +7°C° 0 mm 2 mps 474 mmHg 85%

    23 November, Thursday

    Time Temperature Precipitation Wind Pressure Humidity
    00:00 +6°C° 0 mm 2 mps 473 mmHg 85%
    01:00 +7°C° 0 mm 1 mps 473 mmHg 86%
    02:00 +7°C° 0 mm 1 mps 473 mmHg 86%
    03:00 +7°C° 0 mm 1 mps 473 mmHg 87%
    04:00 +7°C° 0 mm 1 mps 473 mmHg 88%
    05:00 +7°C° 0 mm 1 mps 474 mmHg 84%
    06:00 +8°C° 0 mm 1 mps 474 mmHg 80%
    07:00 +8°C° 0 mm 1 mps 475 mmHg 77%
    08:00 +10°C° 0 mm 1 mps 475 mmHg 71%
    09:00 +10°C° 0 mm 2 mps 476 mmHg 65%
    10:00 +12°C° 0 mm 2 mps 477 mmHg 58%
    11:00 +13°C° 0.2 mm 2 mps 476 mmHg 57%
    12:00 +12°C° 0.2 mm 3 mps 476 mmHg 56%
    13:00 +13°C° 0.2 mm 3 mps 476 mmHg 55%
    14:00 +13°C° 0.2 mm 3 mps 475 mmHg 57%
    15:00 +12°C° 0.2 mm 3 mps 475 mmHg 59%
    16:00 +12°C° 0.2 mm 3 mps 474 mmHg 62%
    17:00 +11°C° 0.1 mm 3 mps 474 mmHg 68%
    18:00 +10°C° 0.1 mm 3 mps 474 mmHg 73%
    19:00 +9°C° 0.1 mm 3 mps 474 mmHg 79%
    20:00 +8°C° 0.1 mm 3 mps 474 mmHg 81%
    21:00 +8°C° 0.1 mm 3 mps 474 mmHg 82%
    22:00 +7°C° 0.1 mm 2 mps 474 mmHg 84%
    23:00 +7°C° 0 mm 2 mps 474 mmHg 84%
    Show more